Location: Edinburgh
(55.9500°N, 3.1600°W)
Time: 09:32:26
(UTC+00:00)

ISS - Visible Passes

Search period start: 13 December 2025 00:00
Search period end: 23 December 2025 00:00
Orbit: 416 x 420 km, 51.6° (Epoch: 12 December)

Date Brightness Start Highest point End Pass type
(mag) Time Alt. Az. Time Alt. Az. Time Alt. Az.
14 Dec -0.7 07:02:20 10° S 07:04:29 16° SSE 07:06:37 10° ESE visible
15 Dec -0.6 06:15:23 10° SSE 06:16:42 12° SE 06:18:02 10° ESE visible
15 Dec -1.7 07:49:44 10° SW 07:52:44 30° SSE 07:55:44 10° E visible
16 Dec -1.5 07:02:00 10° SW 07:04:50 25° SSE 07:07:40 10° ESE visible
17 Dec -1.3 06:14:23 10° SSW 06:16:56 20° SSE 06:19:30 10° ESE visible
17 Dec -2.3 07:50:01 10° WSW 07:53:10 38° S 07:56:20 10° ESE visible
18 Dec -1.1 05:28:32 15° SSE 05:29:03 16° SSE 05:31:09 10° ESE visible
18 Dec -2.2 07:02:05 10° SW 07:05:11 34° SSE 07:08:17 10° ESE visible
19 Dec -2.1 06:15:37 20° SSW 06:17:11 29° SSE 06:20:11 10° E visible
19 Dec -2.5 07:50:21 10° WSW 07:53:32 39° S 07:56:44 10° ESE visible
20 Dec -1.7 05:29:36 24° SE 05:29:36 24° SE 05:32:00 10° ESE visible
20 Dec -2.6 07:02:32 11° WSW 07:05:29 39° S 07:08:40 10° ESE visible
21 Dec -0.3 04:43:30 11° ESE 04:43:30 11° ESE 04:43:42 10° ESE visible
21 Dec -2.6 06:16:25 30° SSW 06:17:24 37° S 06:20:34 10° ESE visible
21 Dec -2.3 07:50:42 10° WSW 07:53:47 33° SSW 07:56:52 10° SE visible
22 Dec -1.9 05:30:13 28° SE 05:30:13 28° SE 05:32:24 10° ESE visible
22 Dec -2.6 07:03:08 14° WSW 07:05:41 37° S 07:08:50 10° ESE visible
